Time,TemperatureF,DewpointF,PressureIn,WindDirection,WindDirectionDegrees,WindSpeedMPH,WindSpeedGustMPH,Humidity,HourlyPrecipIn,Conditions,Clouds,dailyrainin,SoftwareType,DateUTC
2013-05-04 00:02:00,33.0,29.0,29.86,North,-999,-999.0,-999.0,87,-99.99,,,-99.99,,2013-05-04 05:02:00,
2013-05-04 00:12:00,33.0,29.0,29.86,North,-999,-999.0,-999.0,87,-99.99,,,-99.99,,2013-05-04 05:12:00,
2013-05-04 00:22:00,33.0,29.0,29.86,North,-999,-999.0,-999.0,87,-99.99,,,-99.99,,2013-05-04 05:22:00,
2013-05-04 00:32:00,33.0,29.0,29.85,North,-999,-999.0,-999.0,87,-99.99,,,-99.99,,2013-05-04 05:32:00,
2013-05-04 00:42:00,33.0,29.0,29.85,North,-999,-999.0,-999.0,87,-99.99,,,-99.99,,2013-05-04 05:42:00,
2013-05-04 00:52:00,33.0,29.0,29.85,North,-999,-999.0,-999.0,87,-99.99,,,-99.99,,2013-05-04 05:52:00,
2013-05-04 01:01:00,33.0,29.0,29.84,North,-999,-999.0,-999.0,87,-99.99,,,-99.99,,2013-05-04 06:01:00,
2013-05-04 01:11:00,33.0,29.0,29.83,North,-999,-999.0,-999.0,87,-99.99,,,-99.99,,2013-05-04 06:11:00,
2013-05-04 01:21:00,33.0,29.0,29.83,North,-999,-999.0,-999.0,87,-99.99,,,-99.99,,2013-05-04 06:21:00,
2013-05-04 01:32:00,33.0,29.0,29.82,North,-999,-999.0,-999.0,87,-99.99,,,-99.99,,2013-05-04 06:32:00,
2013-05-04 01:42:00,33.0,29.0,29.82,North,-999,-999.0,-999.0,87,-99.99,,,-99.99,,2013-05-04 06:42:00,
2013-05-04 01:52:00,33.0,29.0,29.82,North,-999,-999.0,-999.0,87,-99.99,,,-99.99,,2013-05-04 06:52:00,
2013-05-04 02:01:00,33.0,29.0,29.82,North,-999,-999.0,-999.0,87,-99.99,,,-99.99,,2013-05-04 07:01:00,
2013-05-04 02:11:00,33.0,29.0,29.82,North,-999,-999.0,-999.0,87,-99.99,,,-99.99,,2013-05-04 07:11:00,
2013-05-04 02:21:00,33.0,29.0,29.82,North,-999,-999.0,-999.0,87,-99.99,,,-99.99,,2013-05-04 07:21:00,
2013-05-04 02:32:00,33.0,29.0,29.82,North,-999,-999.0,-999.0,87,-99.99,,,-99.99,,2013-05-04 07:32:00,
2013-05-04 02:42:00,33.0,29.0,29.81,North,-999,-999.0,-999.0,87,-99.99,,,-99.99,,2013-05-04 07:42:00,
2013-05-04 02:52:00,33.0,29.0,29.81,North,-999,-999.0,-999.0,87,-99.99,,,-99.99,,2013-05-04 07:52:00,
2013-05-04 03:01:00,33.0,29.0,29.81,North,-999,-999.0,-999.0,87,-99.99,,,-99.99,,2013-05-04 08:01:00,
2013-05-04 03:11:00,33.0,29.0,29.80,North,-999,-999.0,-999.0,87,-99.99,,,-99.99,,2013-05-04 08:11:00,
2013-05-04 03:21:00,33.0,29.0,29.80,North,-999,-999.0,-999.0,87,-99.99,,,-99.99,,2013-05-04 08:21:00,
2013-05-04 03:31:00,33.0,30.0,29.80,North,-999,-999.0,-999.0,87,-99.99,,,-99.99,,2013-05-04 08:31:00,
2013-05-04 03:42:00,33.0,29.0,29.80,North,-999,-999.0,-999.0,87,-99.99,,,-99.99,,2013-05-04 08:42:00,
2013-05-04 03:52:00,33.0,29.0,29.80,North,-999,-999.0,-999.0,87,-99.99,,,-99.99,,2013-05-04 08:52:00,
2013-05-04 04:02:00,33.0,30.0,29.80,North,-999,-999.0,-999.0,87,-99.99,,,-99.99,,2013-05-04 09:02:00,
2013-05-04 04:11:00,33.0,30.0,29.80,North,-999,-999.0,-999.0,87,-99.99,,,-99.99,,2013-05-04 09:11:00,
2013-05-04 04:21:00,33.0,30.0,29.80,North,-999,-999.0,-999.0,87,-99.99,,,-99.99,,2013-05-04 09:21:00,
2013-05-04 04:32:00,33.0,30.0,29.80,North,-999,-999.0,-999.0,87,-99.99,,,-99.99,,2013-05-04 09:32:00,
2013-05-04 04:42:00,33.0,30.0,29.80,North,-999,-999.0,-999.0,87,-99.99,,,-99.99,,2013-05-04 09:42:00,
2013-05-04 04:52:00,33.0,30.0,29.80,North,-999,-999.0,-999.0,87,-99.99,,,-99.99,,2013-05-04 09:52:00,
2013-05-04 05:03:00,33.0,30.0,29.80,North,-999,-999.0,-999.0,87,-99.99,,,-99.99,,2013-05-04 10:03:00,
2013-05-04 05:12:00,33.0,30.0,29.80,North,-999,-999.0,-999.0,87,-99.99,,,-99.99,,2013-05-04 10:12:00,
2013-05-04 05:23:00,33.0,30.0,29.80,North,-999,-999.0,-999.0,87,-99.99,,,-99.99,,2013-05-04 10:23:00,
2013-05-04 05:33:00,33.0,30.0,29.79,North,-999,-999.0,-999.0,87,-99.99,,,-99.99,,2013-05-04 10:33:00,
2013-05-04 05:42:00,33.0,30.0,29.79,North,-999,-999.0,-999.0,87,-99.99,,,-99.99,,2013-05-04 10:42:00,
2013-05-04 05:52:00,33.0,30.0,29.79,North,-999,-999.0,-999.0,87,-99.99,,,-99.99,,2013-05-04 10:52:00,
2013-05-04 06:02:00,33.0,30.0,29.79,North,-999,-999.0,-999.0,87,-99.99,,,-99.99,,2013-05-04 11:02:00,
2013-05-04 06:11:00,33.0,30.0,29.79,North,-999,-999.0,-999.0,87,-99.99,,,-99.99,,2013-05-04 11:11:00,
2013-05-04 06:21:00,33.0,30.0,29.79,North,-999,-999.0,-999.0,87,-99.99,,,-99.99,,2013-05-04 11:21:00,
2013-05-04 06:32:00,33.0,30.0,29.79,North,-999,-999.0,-999.0,87,-99.99,,,-99.99,,2013-05-04 11:32:00,
2013-05-04 06:56:00,33.0,30.0,29.79,North,-999,-999.0,-999.0,87,-99.99,,,-99.99,,2013-05-04 11:56:00,
2013-05-04 07:14:00,33.0,30.0,29.80,North,-999,-999.0,-999.0,87,-99.99,,,-99.99,,2013-05-04 12:14:00,
2013-05-04 07:29:00,33.0,30.0,29.80,North,-999,-999.0,-999.0,87,-99.99,,,-99.99,,2013-05-04 12:29:00,
2013-05-04 07:36:00,33.0,30.0,29.80,North,-999,-999.0,-999.0,87,-99.99,,,-99.99,,2013-05-04 12:36:00,
2013-05-04 07:42:00,33.0,30.0,29.80,North,-999,-999.0,-999.0,87,-99.99,,,-99.99,,2013-05-04 12:42:00,
2013-05-04 07:51:00,33.0,30.0,29.80,North,-999,-999.0,-999.0,87,-99.99,,,-99.99,,2013-05-04 12:51:00,
2013-05-04 08:01:00,33.0,30.0,29.81,North,-999,-999.0,-999.0,87,-99.99,,,-99.99,,2013-05-04 13:01:00,
2013-05-04 08:11:00,34.0,30.0,29.81,North,-999,-999.0,-999.0,87,-99.99,,,-99.99,,2013-05-04 13:11:00,
2013-05-04 08:21:00,34.0,30.0,29.81,North,-999,-999.0,-999.0,87,-99.99,,,-99.99,,2013-05-04 13:21:00,
2013-05-04 08:42:00,34.0,31.0,29.81,North,-999,-999.0,-999.0,87,-99.99,,,-99.99,,2013-05-04 13:42:00,
2013-05-04 08:52:00,34.0,31.0,29.81,North,-999,-999.0,-999.0,87,-99.99,,,-99.99,,2013-05-04 13:52:00,
2013-05-04 09:02:00,34.0,31.0,29.82,North,-999,-999.0,-999.0,87,-99.99,,,-99.99,,2013-05-04 14:02:00,
2013-05-04 09:11:00,34.0,31.0,29.82,North,-999,-999.0,-999.0,87,-99.99,,,-99.99,,2013-05-04 14:11:00,
2013-05-04 09:21:00,34.0,31.0,29.82,North,-999,-999.0,-999.0,87,-99.99,,,-99.99,,2013-05-04 14:21:00,
2013-05-04 09:32:00,34.0,31.0,29.82,North,-999,-999.0,-999.0,87,-99.99,,,-99.99,,2013-05-04 14:32:00,
2013-05-04 09:42:00,35.0,31.0,29.82,North,-999,-999.0,-999.0,87,-99.99,,,-99.99,,2013-05-04 14:42:00,
2013-05-04 09:51:00,35.0,31.0,29.82,North,-999,-999.0,-999.0,87,-99.99,,,-99.99,,2013-05-04 14:51:00,
2013-05-04 10:00:00,38.0,34.0,29.84,North,-999,-999.0,-999.0,86,-99.99,,,-99.99,,2013-05-04 15:00:00,
2013-05-04 10:02:00,35.0,31.0,29.82,North,-999,-999.0,-999.0,87,-99.99,,,-99.99,,2013-05-04 15:02:00,
2013-05-04 10:12:00,35.0,32.0,29.82,North,-999,-999.0,-999.0,88,-99.99,,,-99.99,,2013-05-04 15:12:00,
2013-05-04 10:22:00,35.0,32.0,29.82,North,-999,-999.0,-999.0,88,-99.99,,,-99.99,,2013-05-04 15:22:00,
2013-05-04 10:33:00,37.0,34.0,29.83,North,-999,-999.0,-999.0,88,-99.99,,,-99.99,,2013-05-04 15:33:00,
2013-05-04 10:43:00,38.0,34.0,29.84,North,-999,-999.0,-999.0,86,-99.99,,,-99.99,,2013-05-04 15:43:00,
2013-05-04 10:52:00,38.0,34.0,29.84,North,-999,-999.0,-999.0,86,-99.99,,,-99.99,,2013-05-04 15:52:00,
2013-05-04 11:12:00,39.0,33.0,29.84,North,-999,-999.0,-999.0,79,-99.99,,,-99.99,,2013-05-04 16:12:00,
2013-05-04 11:22:00,39.0,33.0,29.84,North,-999,-999.0,-999.0,79,-99.99,,,-99.99,,2013-05-04 16:22:00,
2013-05-04 11:33:00,39.0,33.0,29.84,North,-999,-999.0,-999.0,79,-99.99,,,-99.99,,2013-05-04 16:33:00,
2013-05-04 11:42:00,40.0,33.0,29.84,North,-999,-999.0,-999.0,78,-99.99,,,-99.99,,2013-05-04 16:42:00,
2013-05-04 11:52:00,40.0,33.0,29.84,North,-999,-999.0,-999.0,78,-99.99,,,-99.99,,2013-05-04 16:52:00,
2013-05-04 12:02:00,40.0,33.0,29.85,North,-999,-999.0,-999.0,76,-99.99,,,-99.99,,2013-05-04 17:02:00,
2013-05-04 12:12:00,40.0,33.0,29.85,North,-999,-999.0,-999.0,75,-99.99,,,-99.99,,2013-05-04 17:12:00,
2013-05-04 12:22:00,40.0,33.0,29.85,North,-999,-999.0,-999.0,75,-99.99,,,-99.99,,2013-05-04 17:22:00,
2013-05-04 12:32:00,40.0,33.0,29.85,North,-999,-999.0,-999.0,75,-99.99,,,-99.99,,2013-05-04 17:32:00,
2013-05-04 12:42:00,40.0,32.0,29.85,North,-999,-999.0,-999.0,72,-99.99,,,-99.99,,2013-05-04 17:42:00,
2013-05-04 12:52:00,40.0,32.0,29.85,North,-999,-999.0,-999.0,72,-99.99,,,-99.99,,2013-05-04 17:52:00,
2013-05-04 13:01:00,40.0,33.0,29.86,North,-999,-999.0,-999.0,74,-99.99,,,-99.99,,2013-05-04 18:01:00,
2013-05-04 13:12:00,41.0,34.0,29.86,North,-999,-999.0,-999.0,76,-99.99,,,-99.99,,2013-05-04 18:12:00,
2013-05-04 13:21:00,41.0,34.0,29.86,North,-999,-999.0,-999.0,76,-99.99,,,-99.99,,2013-05-04 18:21:00,
2013-05-04 13:32:00,41.0,33.0,29.85,North,-999,-999.0,-999.0,71,-99.99,,,-99.99,,2013-05-04 18:32:00,
2013-05-04 13:42:00,42.0,33.0,29.85,North,-999,-999.0,-999.0,70,-99.99,,,-99.99,,2013-05-04 18:42:00,
2013-05-04 13:52:00,42.0,33.0,29.85,North,-999,-999.0,-999.0,70,-99.99,,,-99.99,,2013-05-04 18:52:00,
2013-05-04 14:01:00,43.0,34.0,29.86,North,-999,-999.0,-999.0,71,-99.99,,,-99.99,,2013-05-04 19:01:00,
2013-05-04 14:11:00,43.0,32.0,29.86,North,-999,-999.0,-999.0,64,-99.99,,,-99.99,,2013-05-04 19:11:00,
2013-05-04 14:21:00,43.0,32.0,29.86,North,-999,-999.0,-999.0,64,-99.99,,,-99.99,,2013-05-04 19:21:00,
2013-05-04 14:32:00,44.0,31.0,29.86,North,-999,-999.0,-999.0,62,-99.99,,,-99.99,,2013-05-04 19:32:00,
2013-05-04 14:42:00,44.0,32.0,29.86,North,-999,-999.0,-999.0,63,-99.99,,,-99.99,,2013-05-04 19:42:00,
2013-05-04 14:52:00,44.0,32.0,29.86,North,-999,-999.0,-999.0,63,-99.99,,,-99.99,,2013-05-04 19:52:00,
2013-05-04 15:02:00,44.0,32.0,29.87,North,-999,-999.0,-999.0,64,-99.99,,,-99.99,,2013-05-04 20:02:00,
2013-05-04 15:11:00,44.0,32.0,29.88,North,-999,-999.0,-999.0,64,-99.99,,,-99.99,,2013-05-04 20:11:00,
2013-05-04 15:22:00,44.0,32.0,29.88,North,-999,-999.0,-999.0,64,-99.99,,,-99.99,,2013-05-04 20:22:00,
2013-05-04 15:32:00,43.0,32.0,29.88,North,-999,-999.0,-999.0,64,-99.99,,,-99.99,,2013-05-04 20:32:00,
2013-05-04 15:42:00,44.0,33.0,29.88,North,-999,-999.0,-999.0,67,-99.99,,,-99.99,,2013-05-04 20:42:00,
2013-05-04 15:52:00,44.0,33.0,29.88,North,-999,-999.0,-999.0,67,-99.99,,,-99.99,,2013-05-04 20:52:00,
2013-05-04 16:02:00,44.0,34.0,29.89,North,-999,-999.0,-999.0,68,-99.99,,,-99.99,,2013-05-04 21:02:00,
2013-05-04 16:12:00,44.0,35.0,29.90,North,-999,-999.0,-999.0,71,-99.99,,,-99.99,,2013-05-04 21:12:00,
2013-05-04 16:22:00,44.0,35.0,29.90,North,-999,-999.0,-999.0,71,-99.99,,,-99.99,,2013-05-04 21:22:00,
2013-05-04 16:33:00,44.0,35.0,29.89,North,-999,-999.0,-999.0,68,-99.99,,,-99.99,,2013-05-04 21:33:00,
2013-05-04 16:43:00,45.0,34.0,29.89,North,-999,-999.0,-999.0,64,-99.99,,,-99.99,,2013-05-04 21:43:00,
2013-05-04 16:53:00,45.0,34.0,29.89,North,-999,-999.0,-999.0,64,-99.99,,,-99.99,,2013-05-04 21:53:00,
2013-05-04 17:03:00,45.0,35.0,29.90,North,-999,-999.0,-999.0,67,-99.99,,,-99.99,,2013-05-04 22:03:00,
2013-05-04 17:12:00,45.0,33.0,29.90,North,-999,-999.0,-999.0,63,-99.99,,,-99.99,,2013-05-04 22:12:00,
2013-05-04 17:22:00,45.0,33.0,29.90,North,-999,-999.0,-999.0,63,-99.99,,,-99.99,,2013-05-04 22:22:00,
2013-05-04 17:33:00,45.0,32.0,29.90,North,-999,-999.0,-999.0,60,-99.99,,,-99.99,,2013-05-04 22:33:00,
2013-05-04 17:42:00,46.0,34.0,29.90,North,-999,-999.0,-999.0,64,-99.99,,,-99.99,,2013-05-04 22:42:00,
2013-05-04 17:52:00,46.0,34.0,29.90,North,-999,-999.0,-999.0,64,-99.99,,,-99.99,,2013-05-04 22:52:00,
2013-05-04 18:02:00,45.0,35.0,29.90,North,-999,-999.0,-999.0,67,-99.99,,,-99.99,,2013-05-04 23:02:00,
2013-05-04 18:12:00,46.0,35.0,29.90,North,-999,-999.0,-999.0,65,-99.99,,,-99.99,,2013-05-04 23:12:00,
2013-05-04 18:22:00,46.0,35.0,29.90,North,-999,-999.0,-999.0,65,-99.99,,,-99.99,,2013-05-04 23:22:00,
2013-05-04 18:32:00,45.0,34.0,29.90,North,-999,-999.0,-999.0,64,-99.99,,,-99.99,,2013-05-04 23:32:00,
2013-05-04 18:42:00,45.0,35.0,29.91,North,-999,-999.0,-999.0,67,-99.99,,,-99.99,,2013-05-04 23:42:00,
2013-05-04 18:52:00,45.0,35.0,29.91,North,-999,-999.0,-999.0,67,-99.99,,,-99.99,,2013-05-04 23:52:00,
2013-05-04 19:02:00,45.0,35.0,29.92,North,-999,-999.0,-999.0,67,-99.99,,,-99.99,,2013-05-05 00:02:00,
2013-05-04 19:11:00,45.0,35.0,29.92,North,-999,-999.0,-999.0,69,-99.99,,,-99.99,,2013-05-05 00:11:00,
2013-05-04 19:21:00,45.0,35.0,29.92,North,-999,-999.0,-999.0,69,-99.99,,,-99.99,,2013-05-05 00:21:00,
2013-05-04 19:32:00,44.0,35.0,29.91,North,-999,-999.0,-999.0,70,-99.99,,,-99.99,,2013-05-05 00:32:00,
2013-05-04 19:42:00,44.0,35.0,29.91,North,-999,-999.0,-999.0,71,-99.99,,,-99.99,,2013-05-05 00:42:00,
2013-05-04 19:51:00,44.0,35.0,29.91,North,-999,-999.0,-999.0,71,-99.99,,,-99.99,,2013-05-05 00:51:00,
2013-05-04 20:01:00,44.0,35.0,29.92,North,-999,-999.0,-999.0,71,-99.99,,,-99.99,,2013-05-05 01:01:00,
2013-05-04 20:11:00,44.0,35.0,29.92,North,-999,-999.0,-999.0,71,-99.99,,,-99.99,,2013-05-05 01:11:00,
2013-05-04 20:21:00,44.0,35.0,29.92,North,-999,-999.0,-999.0,71,-99.99,,,-99.99,,2013-05-05 01:21:00,
2013-05-04 20:32:00,43.0,35.0,29.92,North,-999,-999.0,-999.0,73,-99.99,,,-99.99,,2013-05-05 01:32:00,
2013-05-04 20:42:00,42.0,35.0,29.93,North,-999,-999.0,-999.0,74,-99.99,,,-99.99,,2013-05-05 01:42:00,
2013-05-04 20:52:00,42.0,35.0,29.93,North,-999,-999.0,-999.0,74,-99.99,,,-99.99,,2013-05-05 01:52:00,
2013-05-04 21:02:00,42.0,35.0,29.94,North,-999,-999.0,-999.0,76,-99.99,,,-99.99,,2013-05-05 02:02:00,
2013-05-04 21:11:00,42.0,35.0,29.94,North,-999,-999.0,-999.0,77,-99.99,,,-99.99,,2013-05-05 02:11:00,
2013-05-04 21:22:00,42.0,35.0,29.94,North,-999,-999.0,-999.0,77,-99.99,,,-99.99,,2013-05-05 02:22:00,
2013-05-04 21:32:00,42.0,35.0,29.94,North,-999,-999.0,-999.0,78,-99.99,,,-99.99,,2013-05-05 02:32:00,
2013-05-04 21:42:00,42.0,36.0,29.94,North,-999,-999.0,-999.0,78,-99.99,,,-99.99,,2013-05-05 02:42:00,
2013-05-04 21:52:00,42.0,36.0,29.94,North,-999,-999.0,-999.0,78,-99.99,,,-99.99,,2013-05-05 02:52:00,
2013-05-04 22:01:00,42.0,35.0,29.95,North,-999,-999.0,-999.0,78,-99.99,,,-99.99,,2013-05-05 03:01:00,
2013-05-04 22:11:00,42.0,36.0,29.96,North,-999,-999.0,-999.0,79,-99.99,,,-99.99,,2013-05-05 03:11:00,
2013-05-04 22:22:00,42.0,36.0,29.96,North,-999,-999.0,-999.0,79,-99.99,,,-99.99,,2013-05-05 03:22:00,
2013-05-04 22:33:00,42.0,36.0,29.96,North,-999,-999.0,-999.0,80,-99.99,,,-99.99,,2013-05-05 03:33:00,
2013-05-04 22:42:00,42.0,36.0,29.97,North,-999,-999.0,-999.0,80,-99.99,,,-99.99,,2013-05-05 03:42:00,
2013-05-04 22:53:00,42.0,36.0,29.97,North,-999,-999.0,-999.0,80,-99.99,,,-99.99,,2013-05-05 03:53:00,
2013-05-04 23:02:00,42.0,36.0,29.97,North,-999,-999.0,-999.0,79,-99.99,,,-99.99,,2013-05-05 04:02:00,
2013-05-04 23:12:00,42.0,36.0,29.97,North,-999,-999.0,-999.0,80,-99.99,,,-99.99,,2013-05-05 04:12:00,
2013-05-04 23:23:00,42.0,36.0,29.97,North,-999,-999.0,-999.0,80,-99.99,,,-99.99,,2013-05-05 04:23:00,
2013-05-04 23:32:00,42.0,36.0,29.97,North,-999,-999.0,-999.0,81,-99.99,,,-99.99,,2013-05-05 04:32:00,
2013-05-04 23:43:00,42.0,36.0,29.97,North,-999,-999.0,-999.0,81,-99.99,,,-99.99,,2013-05-05 04:43:00,
2013-05-04 23:52:00,42.0,36.0,29.97,North,-999,-999.0,-999.0,81,-99.99,,,-99.99,,2013-05-05 04:52:00,